sat.trackr.live / text

‹ back to catalog

STARLINK-3750

NORAD 52311 · 2022-041BC

PAYLOAD ACTIVE UNKNOWN

§ Identity

Operator
Country
US
Launch date
2022-04-21
Launch site
AFETR
Launch vehicle
Mass (kg)
RCS (m²)

Purposes: comms

External: N2YO · Heavens-Above · Gunter

§ Orbital elements

Epoch: 2026-09-19T18:52:08.728896Z

Period
93.90 min
Inclination
53.1592°
Eccentricity
0.0001106
Mean motion
15.33545179 rev/d
Perigee alt
464.5 km
Apogee alt
466.0 km
Semi-major
6,843.4 km
B*
3.4143e-5
RAAN
285.2899°
Arg perigee
86.0573°
Mean anomaly
274.0556°
Rev number
24,533

§ Raw data

STARLINK-37501 52311U 22041BC  26262.78621214  .00000750  00000+0  34143-4 0  99902 52311  53.1592 285.2899 0001106  86.0573 274.0556 15.33545179245338

JSON: /api/v1/satellites/52311 · /tle

For live sub-satellite position, see the globe view (requires WebGL).

§ Visibility from observer

Set your observer location to see the next 7 days of passes ≥ 10°. The values pass through the URL so the page stays shareable.

No JS? Fill the form by hand. The geolocation button needs JavaScript.